Theta_e
312 313 313 314 312 311 311 312 312 312 312 311 311 311 311 311 311 311 311 311 308 313 322 323 321 321 322 322 321 321 320 321 321 321 321 321 322 322 322 322 321 321 320
312 313 314 314 312 312 312 311 311 312 312 312 311 312 311 312 311 311 311 312 311 308 316 322 324 323 323 323 323 322 321 320 320 320 320 320 321 321 320 320 319 320 320
314 313 315 315 313 313 312 311 311 311 311 312 312 312 312 312 312 312 312 312 312 311 309 318 322 324 324 324 324 323 321 319 319 320 320 319 320 320 320 320 320 319 319
315 314 315 316 316 315 313 312 312 312 312 312 312 312 313 313 313 313 313 313 312 313 312 309 315 322 324 325 325 324 322 321 319 320 320 319 319 320 320 319 319 319 319
317 316 316 317 316 315 314 313 313 313 312 313 313 313 313 313 314 314 314 314 313 313 313 315 313 312 323 324 325 324 323 322 320 320 320 319 319 319 319 319 319 319 319
320 318 317 317 316 315 314 313 313 314 314 313 313 313 312 312 313 314 315 314 314 314 313 314 316 314 310 322 325 325 324 323 321 319 319 320 319 319 319 319 318 318 319
321 319 318 318 317 316 315 314 313 314 314 314 315 314 315 315 313 314 315 315 315 314 314 313 315 315 311 308 315 324 325 324 323 320 317 318 319 319 319 319 318 318 318
322 321 320 319 318 317 316 315 314 313 314 314 314 314 312 316 315 315 314 315 315 315 314 314 314 314 313 314 313 310 320 325 325 322 319 317 318 318 319 320 319 318 318
322 322 321 319 318 318 317 316 316 314 314 314 315 313 313 315 314 319 315 315 315 315 315 314 314 314 313 313 314 314 310 314 324 324 322 318 319 319 320 320 320 319 319
323 322 322 321 319 318 317 317 316 316 315 315 314 315 314 314 311 312 317 317 315 315 314 314 314 313 313 313 313 314 314 311 311 321 324 322 320 320 321 321 320 320 319
322 322 321 321 320 319 318 317 316 316 316 316 316 316 316 314 314 312 311 314 316 316 315 314 314 313 313 312 312 313 314 313 311 310 319 323 323 322 321 322 321 320 319
321 322 321 320 320 319 319 318 317 317 317 316 315 316 316 316 315 314 310 312 313 315 316 317 316 314 313 313 312 312 313 313 313 311 311 315 320 323 323 323 322 322 320
315 317 318 320 320 320 320 319 319 318 318 317 317 317 316 316 316 316 316 314 313 315 314 315 317 317 316 315 314 313 312 312 312 312 312 310 312 317 320 321 323 323 323
308 309 311 315 317 318 319 319 320 319 319 319 319 318 317 317 317 316 316 316 312 313 315 315 314 315 316 316 316 315 314 313 312 312 312 311 309 309 311 313 318 321 322
304 305 306 307 310 314 317 318 318 319 319 319 319 318 319 318 318 317 317 317 316 312 311 315 315 315 316 316 316 316 316 315 314 313 312 311 310 309 309 309 308 309 315
303 303 304 304 305 306 309 312 315 317 318 318 318 319 319 318 318 318 318 317 317 316 314 316 315 314 316 317 316 316 316 315 314 314 313 312 312 310 309 309 309 308 308
302 303 303 303 303 304 305 306 307 309 312 315 316 317 318 318 318 318 318 318 317 317 316 316 316 316 316 316 316 316 315 314 313 312 312 312 312 312 311 309 309 309 309
302 302 302 302 303 303 303 304 304 305 306 307 308 311 314 315 317 317 318 317 318 318 317 316 316 316 317 317 317 317 316 316 315 314 314 314 314 313 312 311 311 309 309
300 300 300 301 301 302 302 302 301 301 304 305 306 307 308 309 312 314 315 316 316 317 317 317 316 317 317 317 317 317 317 317 317 315 315 314 314 314 314 313 312 311 311
297 297 298 299 299 299 300 300 299 299 299 301 304 305 306 307 308 308 309 310 312 313 314 316 316 316 317 317 317 316 316 316 316 317 316 315 315 315 314 314 313 313 312
295 295 296 297 298 298 301 299 300 299 298 300 301 304 305 305 306 306 307 308 310 311 312 312 312 314 315 316 316 316 316 317 317 317 317 316 316 315 315 315 314 314 313
295 295 296 296 297 297 299 300 300 299 299 301 302 303 304 304 304 305 306 306 305 303 305 311 311 312 312 313 313 314 315 315 314 316 316 316 316 316 316 316 316 315 315
294 294 295 296 296 296 299 299 299 297 297 298 299 300 302 302 303 303 302 302 302 302 302 304 308 311 312 312 313 313 314 314 313 314 315 315 316 315 315 315 315 315 315
293 293 294 295 296 297 297 297 296 295 295 296 296 297 298 299 300 301 300 299 299 299 300 301 303 304 304 305 307 309 309 310 310 311 312 313 314 314 314 314 314 314 314
292 292 293 294 293 292 294 294 293 292 293 293 294 295 296 297 298 299 298 297 297 297 298 300 300 301 301 302 303 303 305 306 307 308 310 311 312 313 313 313 313 313 313
291 291 292 290 291 290 291 292 292 291 291 291 292 292 294 295 296 297 297 297 298 298 299 299 299 301 302 303 304 305 305 306 307 308 310 310 311 312 312 312 312 313 312
Wind_Speed
3 2 2 1 1 3 1 1 3 3 3 3 3 2 3 5 2 4 4 4 5 9 9 9 9 8 8 7 6 6 5 4 2 1 2 2 3 3 4 5 5 6 6
3 3 3 3 2 3 2 3 4 3 3 4 5 3 5 3 4 5 7 6 5 8 11 11 10 9 9 7 6 6 5 4 3 3 3 3 3 3 4 5 6 6 6
4 4 4 3 2 3 6 3 4 5 5 4 5 4 6 6 7 7 8 9 8 8 11 12 12 11 10 9 9 7 6 5 5 4 4 4 5 5 6 6 5 6 7
6 6 5 4 5 6 5 4 4 5 6 6 6 7 8 8 9 9 10 10 11 9 9 11 13 13 13 12 11 10 9 8 7 6 6 6 7 7 7 7 8 7 7
6 6 6 6 6 5 5 6 5 6 6 7 8 9 9 10 10 11 12 13 14 13 12 10 10 14 15 14 13 12 11 10 9 9 8 8 8 9 9 8 8 8 8
7 8 7 7 7 6 7 7 8 6 7 9 10 13 13 14 14 15 14 14 15 15 16 15 13 14 17 17 16 15 14 13 13 12 11 11 11 10 10 10 10 9 8
8 8 8 8 8 8 8 8 8 8 8 9 10 11 12 14 16 17 15 16 15 17 16 17 17 15 15 19 19 18 17 16 16 15 14 14 14 13 12 12 11 11 10
11 10 10 9 9 9 8 9 9 10 10 8 4 9 3 4 14 15 17 16 15 16 18 17 17 19 17 16 18 21 21 19 18 17 17 17 16 15 15 14 14 13 13
12 12 12 12 11 11 12 10 10 10 10 10 8 6 3 1 5 5 12 15 16 17 17 18 18 19 18 20 19 18 23 23 22 20 20 19 19 18 17 17 16 15 15
11 12 13 13 13 13 14 13 12 13 11 13 11 11 13 8 1 4 4 10 15 17 20 19 20 21 21 21 23 22 20 23 26 25 23 22 21 21 20 19 19 18 18
6 9 11 13 14 15 15 15 13 14 14 14 14 13 11 12 12 5 4 5 9 14 15 18 22 22 23 24 25 25 24 23 25 27 27 25 23 23 22 22 21 21 20
5 6 9 11 13 13 15 16 16 16 16 17 17 17 17 9 7 11 5 10 15 21 18 17 16 19 23 24 25 26 27 28 26 27 30 29 28 25 24 24 24 23 23
14 12 9 8 9 12 15 16 15 16 17 19 20 20 19 20 20 19 16 10 6 20 17 17 18 18 20 23 26 27 28 30 29 29 30 32 32 31 29 27 26 25 25
15 14 15 12 12 12 13 13 15 17 18 19 19 21 22 22 21 21 21 15 5 6 19 24 20 21 21 23 22 25 28 28 31 31 30 33 33 34 34 32 30 30 29
16 15 16 15 15 12 12 13 14 15 16 17 20 20 21 24 23 22 21 20 16 4 3 15 21 20 25 22 21 20 23 25 27 29 32 35 35 36 36 36 35 35 33
17 17 17 17 16 15 14 14 12 13 14 16 18 19 20 21 21 22 23 23 22 20 7 13 19 21 14 15 18 19 21 22 25 27 28 30 33 38 39 38 38 38 38
18 17 17 17 16 16 16 15 14 16 16 15 14 16 17 18 19 21 19 20 24 24 16 24 25 26 28 28 22 23 23 25 26 25 26 26 27 30 36 40 41 41 41
17 18 16 16 16 16 18 13 13 16 18 19 18 16 16 16 17 19 21 22 22 22 25 20 25 25 25 26 27 27 26 29 30 31 30 31 31 31 31 33 37 43 45
18 17 17 17 17 16 17 13 14 16 15 17 18 18 17 17 17 17 17 19 21 23 25 24 22 26 25 25 26 28 29 29 30 33 34 33 32 34 35 35 36 38 40
18 16 19 17 17 17 14 16 18 19 19 17 16 18 17 15 14 16 18 19 20 19 16 18 19 24 24 24 24 26 29 29 30 30 30 30 30 31 34 35 35 37 40
18 18 19 17 17 15 12 19 19 21 22 19 17 15 16 16 15 12 13 14 16 18 18 17 16 17 19 20 21 24 26 28 27 26 29 31 34 33 31 33 35 36 37
17 17 17 17 17 16 17 17 16 19 20 18 19 19 17 13 16 12 9 10 11 17 19 20 19 15 21 24 24 24 20 18 8 21 21 24 21 24 24 28 31 32 33
16 16 16 14 15 15 14 15 17 16 18 20 20 19 18 15 14 15 14 16 19 19 18 21 20 21 21 26 26 25 24 24 21 23 24 25 27 30 32 31 32 33 34
16 15 14 13 13 10 16 18 18 16 19 19 19 19 21 20 17 17 18 19 20 22 21 23 23 18 20 20 20 22 24 25 25 27 30 25 28 33 35 37 37 36 35
15 13 13 11 14 17 19 20 22 20 18 19 18 18 19 20 22 20 22 21 22 26 23 20 26 29 30 29 28 27 28 22 19 21 21 27 27 31 32 34 37 36 36
10 10 12 15 14 19 19 22 19 16 17 18 18 19 19 21 20 20 19 20 19 22 21 22 24 26 25 23 20 20 25 23 21 15 12 19 21 23 14 24 23 19 18
Wind_Direction
228 249 276 330 294 305 4 312 316 307 314 299 252 284 270 253 216 226 254 270 226 197 190 190 183 175 169 159 150 140 138 136 140 153 153 144 149 144 147 145 139 126 116
266 246 255 280 280 289 287 301 300 281 299 299 282 259 262 244 233 229 252 264 257 221 205 201 201 197 190 187 179 171 172 175 186 200 191 186 178 172 162 150 145 141 134
254 257 264 270 284 285 299 323 332 299 302 299 288 272 272 258 253 243 239 253 260 247 225 208 205 206 205 200 196 193 192 194 201 206 208 206 196 181 173 164 157 153 146
249 246 258 270 275 270 288 275 293 296 292 290 285 283 267 263 255 244 243 243 246 250 239 227 213 209 210 209 206 205 201 204 208 210 215 211 203 187 178 176 169 164 160
242 252 256 270 276 281 287 295 284 289 294 304 296 284 272 264 255 249 245 244 243 239 244 243 232 219 210 214 212 209 209 207 207 208 212 212 205 194 188 185 183 176 175
239 242 251 260 265 272 277 272 279 276 284 286 291 285 269 258 252 248 240 244 250 248 237 235 235 232 223 215 216 214 212 211 210 209 209 208 205 202 200 194 190 187 186
239 242 247 256 262 259 264 275 271 274 280 285 281 306 298 268 246 245 248 240 242 249 253 235 236 238 233 228 221 216 215 215 214 212 209 208 206 207 207 204 201 200 200
234 241 243 245 250 258 260 261 259 269 277 271 273 307 319 345 240 246 244 245 244 245 250 254 236 239 236 234 233 227 214 215 217 215 212 209 209 209 210 210 211 208 207
240 243 243 247 248 248 253 260 259 253 260 279 247 253 335 269 334 255 239 242 244 242 248 251 248 247 238 236 239 236 229 219 214 219 216 214 212 213 213 214 214 214 215
250 250 254 258 256 254 256 254 254 254 249 259 280 252 261 280 320 336 265 251 255 254 245 243 246 246 245 240 241 246 240 230 223 216 220 219 216 215 215 216 217 218 218
275 263 262 262 261 259 259 261 253 251 249 251 253 267 271 250 261 245 283 302 241 267 268 251 250 251 245 244 244 244 250 244 235 226 221 222 221 221 220 219 219 221 222
328 302 289 274 269 269 268 263 261 258 258 253 255 256 261 260 241 242 250 269 275 290 277 260 256 257 254 251 249 248 248 253 249 238 231 227 225 225 224 223 223 224 225
9 351 344 333 301 286 276 268 269 266 262 259 258 258 257 258 262 267 276 283 272 289 293 280 269 262 265 259 255 253 252 253 254 251 242 238 235 231 230 229 228 228 228
20 9 5 345 320 303 296 292 275 271 271 267 267 261 261 261 262 262 260 271 295 290 284 275 272 267 267 263 262 255 254 256 255 255 253 249 245 244 242 239 235 233 233
19 16 14 12 8 353 326 306 296 290 280 278 269 268 267 264 263 264 266 261 256 276 283 283 274 273 268 262 262 261 258 258 257 255 255 253 251 249 249 249 249 246 242
17 15 14 14 12 9 5 355 333 309 296 288 283 282 273 272 270 265 263 263 260 257 265 270 276 290 301 263 258 260 267 267 263 262 260 259 257 253 251 251 251 252 251
11 13 12 11 10 7 8 4 6 2 352 333 314 302 297 289 281 278 279 269 261 258 261 275 277 279 282 284 280 274 276 275 275 273 272 270 268 262 256 254 254 254 254
2 4 2 5 5 4 3 357 356 357 355 351 344 336 322 318 300 287 277 275 276 273 260 267 278 281 282 283 282 284 281 275 275 277 278 278 276 274 269 264 259 257 258
353 351 355 355 356 356 354 349 352 349 345 341 341 338 333 327 319 314 309 290 282 275 270 269 275 280 283 285 285 280 278 279 278 275 275 277 279 280 278 274 270 267 264
344 345 348 345 345 345 343 346 344 336 331 329 330 331 328 331 335 328 319 314 311 310 314 298 278 282 283 287 283 282 281 280 278 278 276 279 283 282 279 278 277 274 271
341 343 341 346 348 347 354 348 348 338 330 323 320 325 325 327 330 335 333 328 322 320 318 314 303 308 301 290 279 285 278 283 282 280 279 278 283 282 281 280 278 277 277
337 338 341 343 345 344 345 347 354 343 339 330 325 325 323 330 336 337 334 330 335 346 334 305 293 283 289 292 294 305 316 308 291 289 283 279 285 287 292 287 285 283 281
337 334 334 337 342 346 7 6 356 346 349 357 360 2 6 8 8 358 348 337 329 328 322 326 320 290 285 296 300 294 294 293 286 292 297 286 289 283 287 284 280 280 281
332 331 337 341 351 24 23 15 8 357 346 342 346 350 358 351 6 7 353 345 340 327 317 320 322 325 316 309 308 304 302 295 289 285 284 285 288 282 284 285 285 283 278
343 339 345 8 43 35 23 13 6 356 351 346 346 353 348 342 345 350 350 341 332 324 324 316 310 305 302 300 299 299 298 294 291 286 289 276 277 281 283 284 288 290 287
4 20 36 40 39 33 22 20 10 8 2 355 360 360 355 346 343 352 9 7 357 349 341 325 323 319 323 317 313 304 292 274 279 287 289 274 282 284 287 286 281 292 295